TimeEDT,TemperatureF,Dew PointF,Humidity,Sea Level PressureIn,VisibilityMPH,Wind Direction,Wind SpeedMPH,Gust SpeedMPH,PrecipitationIn,Events,Conditions,WindDirDegrees,DateUTC
12:53 AM,73.0,50.0,44,30.11,10.0,North,9.2,-,N/A,,Clear,10,2013-05-14 04:53:00
1:53 AM,70.0,50.0,49,30.11,10.0,North,9.2,-,N/A,,Clear,10,2013-05-14 05:53:00
2:53 AM,68.0,52.0,56,30.09,10.0,North,8.1,-,N/A,,Clear,10,2013-05-14 06:53:00
3:53 AM,68.0,55.0,63,30.10,10.0,NNE,8.1,-,N/A,,Clear,30,2013-05-14 07:53:00
4:53 AM,66.9,55.9,68,30.10,10.0,NNE,10.4,-,N/A,,Clear,30,2013-05-14 08:53:00
5:53 AM,66.0,55.0,68,30.10,10.0,NNE,8.1,-,N/A,,Clear,30,2013-05-14 09:53:00
6:53 AM,64.9,55.0,70,30.13,10.0,NE,8.1,-,N/A,,Clear,40,2013-05-14 10:53:00
7:53 AM,66.9,55.0,66,30.14,10.0,NE,10.4,17.3,N/A,,Clear,40,2013-05-14 11:53:00
8:53 AM,72.0,52.0,49,30.15,10.0,NE,16.1,-,N/A,,Clear,40,2013-05-14 12:53:00
9:53 AM,75.9,54.0,46,30.16,10.0,NE,15.0,21.9,N/A,,Clear,50,2013-05-14 13:53:00
10:53 AM,79.0,55.9,45,30.16,10.0,ENE,16.1,-,N/A,,Clear,70,2013-05-14 14:53:00
11:53 AM,81.0,57.9,45,30.17,10.0,NE,10.4,-,N/A,,Clear,50,2013-05-14 15:53:00
12:53 PM,84.0,60.1,44,30.16,10.0,NE,8.1,-,N/A,,Clear,40,2013-05-14 16:53:00
1:53 PM,84.9,57.0,38,30.14,10.0,NNW,5.8,-,N/A,,Clear,330,2013-05-14 17:53:00
2:53 PM,84.9,55.0,36,30.12,10.0,NNE,9.2,-,N/A,,Partly Cloudy,20,2013-05-14 18:53:00
3:53 PM,86.0,55.0,35,30.10,10.0,ENE,10.4,19.6,N/A,,Scattered Clouds,70,2013-05-14 19:53:00
4:53 PM,86.0,53.1,32,30.09,10.0,NNE,11.5,-,N/A,,Partly Cloudy,20,2013-05-14 20:53:00
5:53 PM,84.9,53.1,33,30.09,10.0,ENE,13.8,-,N/A,,Partly Cloudy,70,2013-05-14 21:53:00
6:53 PM,82.9,52.0,34,30.09,10.0,East,13.8,-,N/A,,Clear,90,2013-05-14 22:53:00
7:53 PM,80.1,51.1,36,30.10,10.0,ENE,12.7,-,N/A,,Clear,60,2013-05-14 23:53:00
8:53 PM,77.0,54.0,45,30.12,10.0,ENE,9.2,-,N/A,,Clear,70,2013-05-15 00:53:00
9:53 PM,73.9,55.9,53,30.15,10.0,East,10.4,-,N/A,,Clear,80,2013-05-15 01:53:00
10:53 PM,72.0,55.9,57,30.17,10.0,East,10.4,-,N/A,,Clear,80,2013-05-15 02:53:00
11:53 PM,71.1,55.9,59,30.17,10.0,East,10.4,-,N/A,,Clear,90,2013-05-15 03:53:00